Weather observations for the past three days for
Orange, Orange County Airport
Imperial (Metric)
Date Time (cdt) Wind (mph) Vis. (mi.) Weather Sky Cond. Temperature (ºF) Relative Humidity Wind Chill (°F) Heat Index (°F) Pressure Precipitation (in)
Air Dwpt 6 hour altimeter (in) sea level (mb) 1 hr 3 hr 6 hr
Max. Min.
17 22:55 Calm 10.00 Fair CLR 80.1 76.3 88% 86 30.04 0.0
17 22:35 Calm 10.00 Fair CLR 80.1 76.1 88% 85 30.03 0.0
17 22:15 Calm 10.00 Fair CLR 80.2 76.5 88% 86 30.02 0.0
17 21:55 S 3 10.00 Fair CLR 80.8 77 88% 88 30.02 0.0
17 21:35 Calm 10.00 Fair CLR 81.1 77 87% 88 30.03 0.0
17 21:15 Calm 10.00 Fair CLR 81.5 77.2 87% 89 30 0.0
17 20:55 Calm 10.00 Fair CLR 81.7 77.2 86% 90 30 0.0
17 20:35 Calm 10.00 Fair CLR 83.1 77 82% 92 29.99 0.0
17 20:15 Calm 10.00 Fair CLR 83.3 76.6 80% 92 29.99 0.0
17 19:55 Calm 10.00 Fair CLR 85.5 75.9 73% 95 29.99 0.0
17 19:35 SW 3 10.00 Fair CLR 85.8 76.1 73% 96 30 0.0
17 19:15 SW 3 10.00 Fair CLR 86 75.6 71% 96 29.99 0.0
17 18:55 SW 5 10.00 Fair CLR 86 75.4 93.4 75.4 71% 95 29.98 0.0
17 18:35 S 5 10.00 Fair CLR 87.6 74.3 65% 97 29.99 0.0
17 18:15 S 7 10.00 Partly Cloudy SCT045 SCT050 88.9 72.7 59% 97 29.99 0.0
17 17:55 S 8 10.00 Mostly Cloudy SCT045 BKN050 91 70.5 51% 97 29.98 0.0
17 17:35 S 5 10.00 Fair CLR 93 70 47% 99 29.99 0.0
17 17:15 SE 5 10.00 Partly Cloudy SCT042 92.8 71.4 50% 100 29.99 0.0
17 16:55 S 8 10.00 Fair CLR 93.2 70.7 48% 100 29.98 0.0
17 16:35 SE 8 10.00 Fair CLR 92.8 68.5 45% 98 29.98 0.0
17 16:15 E 5 10.00 Fair CLR 93.4 68.4 44% 98 29.99 0.0
17 15:55 S 5 10.00 Fair CLR 92.5 70.5 49% 99 29.99 0.0
17 15:35 SE 5 10.00 Fair CLR 91.8 69.8 49% 97 29.98 0.0
17 15:15 S 3 10.00 Fair CLR 91.9 64.8 41% 94 29.98 0.0
17 14:55 SE 3 10.00 Fair CLR 90 72.1 56% 97 29.98 0.0
17 14:35 Calm 10.00 Fair CLR 85.6 72.3 65% 92 30 0.0
17 14:15 Calm 10.00 Partly Cloudy SCT100 SCT120 79.7 71.2 75% 83 30.02 0.0
17 13:55 SE 3 10.00 Light Rain BKN110 77.2 70 79% 79 30.02 0.0
17 13:35 Calm 10.00 Light Drizzle SCT090 SCT120 76.1 70 81% 77 30.03 0.0
17 13:15 W 9 10.00 Thunderstorm Light Rain SCT022 SCT040 BKN110 75.9 69.8 81% 77 30.05 0.0
17 12:55 NW 8 10.00 Thunderstorm Light Rain SCT023 BKN030 BKN060 79.2 69.4 90.5 79.2 72% 82 30.05 0.0
17 12:35 S 5 10.00 Thunderstorm Light Rain SCT031 SCT039 SCT060 84.4 77 79% 94 30.07 0.0
17 12:15 SE 8 10.00 Thunderstorm CLR 88.2 75.7 67% 99 30.08 0.0
17 11:55 Calm 10.00 Thunderstorm SCT070 88.5 76.1 67% 100 30.05 0.0
17 11:35 Calm 10.00 Thunderstorm in Vicinity SCT070 88.5 75.7 66% 99 30.07 0.0
17 11:15 Calm 10.00 Thunderstorm in Vicinity CLR 88.5 76.5 68% 100 30.05 0.0
17 10:55 Calm 10.00 Thunderstorm in Vicinity SCT030 SCT035 89.4 74.3 61% 99 30.04 0.0
17 10:35 NW 3 10.00 Thunderstorm in Vicinity SCT027 SCT034 90 75.6 63% 101 30.05 0.0
17 10:15 Calm 10.00 Thunderstorm in Vicinity SCT025 SCT065 90 75.7 63% 101 30.05 0.0
17 09:55 Calm 10.00 Partly Cloudy SCT025 88.7 75.6 65% 99 30.05 0.0
17 09:35 Calm 10.00 Partly Cloudy SCT023 86.4 76.3 72% 97 30.04 0.0
17 09:15 Calm 10.00 Thunderstorm in Vicinity CLR 87.4 77 71% 99 30.04 0.0
17 08:55 W 3 10.00 Partly Cloudy SCT023 86.9 77.7 74% 99 30.04 0.0
17 08:35 Calm 10.00 Partly Cloudy SCT023 86 77.7 76% 98 30.04 0.0
17 08:15 Calm 10.00 Fair CLR 84.4 77.4 80% 95 30.03 0.0
17 07:55 Calm 10.00 Fair CLR 84 78.3 83% 95 30.03 0.0
17 07:35 Calm 10.00 Fair CLR 82 78.1 88% 91 30.02 0.0
17 07:15 Calm 10.00 Fair CLR 80.1 77.4 92% 86 30.02 0.0
17 06:55 Calm 10.00 Fair CLR 79.7 76.1 84.4 79.5 89% 85 30.02 0.0
17 06:35 Calm 10.00 Fair CLR 79.7 76.1 89% 85 30.01 0.0
17 06:15 Calm 10.00 Fair CLR 79.7 76.1 89% 85 30.01 0.0
17 05:55 Calm 10.00 Thunderstorm in Vicinity CLR 81.1 76.3 85% 88 30 0.0
17 05:35 Calm 10.00 Fair CLR 81.7 76.1 83% 89 29.99 0.0
17 05:15 SW 5 10.00 Fair CLR 82.6 76.1 81% 90 30 0.0
17 04:55 SW 3 10.00 Fair CLR 82 76.6 84% 90 30 0.0
17 04:35 Calm 10.00 Fair CLR 81 76.6 87% 88 29.99 0.0
17 04:15 Calm 10.00 Fair CLR 82 77 85% 90 29.99 0.0
17 03:55 Calm 10.00 Partly Cloudy SCT029 83.1 77 82% 92 29.99 0.0
17 03:35 S 5 10.00 Fair CLR 83.8 77.4 81% 94 29.99 0.0
17 03:15 S 5 10.00 Partly Cloudy SCT026 SCT030 84.2 77.4 80% 95 29.99 0.0
17 02:55 S 6 10.00 Mostly Cloudy BKN026 BKN033 BKN043 84.2 77.5 80% 95 29.98 0.0
17 02:35 S 6 10.00 Partly Cloudy SCT026 SCT030 82.8 77.9 85% 92 29.98 0.0
17 02:15 Calm 10.00 Fair CLR 80.1 77.2 91% 86 29.98 0.0
17 01:55 Calm 10.00 Fair CLR 80.2 77 90% 86 29.99 0.0
17 01:35 Calm 10.00 Fair CLR 79.9 76.8 90% 85 29.99 0.0
17 01:15 Calm 10.00 Fair CLR 79.7 76.5 90% 85 29.99 0.0
17 00:55 Calm 10.00 Fair CLR 80.2 76.6 89.6 79.9 89% 86 29.99 0.0
17 00:35 Calm 10.00 Fair CLR 80.6 77 89% 87 29.99 0.0
17 00:15 Calm 10.00 Fair CLR 79.9 76.5 89% 85 29.99 0.0
16 23:55 Calm 10.00 Fair CLR 80.8 76.3 86% 87 30 0.0
16 23:35 Calm 10.00 Fair CLR 81.1 76.6 86% 88 29.99 0.0
16 23:15 Calm 10.00 Fair CLR 81.5 76.1 84% 88 30 0.0
16 22:55 Calm 10.00 Fair CLR 82.9 75.7 79% 91 29.99 0.0
16 22:35 SW 3 10.00 Fair CLR 83.5 75.4 77% 91 29.98 0.0
16 22:15 S 5 10.00 Fair CLR 84.4 75.2 74% 93 29.98 0.0
16 21:55 S 3 10.00 Fair CLR 84.6 75.2 74% 93 29.98 0.0
16 21:35 S 3 10.00 Fair CLR 85.1 74.3 70% 93 29.98 0.0
16 21:15 S 5 10.00 Fair CLR 85.5 74.7 70% 94 29.98 0.0
16 20:55 S 6 10.00 Fair CLR 86 75.2 70% 95 29.97 0.0
16 20:35 S 7 10.00 Fair CLR 86 75.6 71% 96 29.97 0.0
16 20:15 S 6 10.00 Fair CLR 86.2 75.7 71% 96 29.97 0.0
16 19:55 S 6 10.00 Fair CLR 87.3 75.6 68% 97 29.97 0.0
16 19:35 S 8 10.00 Fair CLR 88.2 75 65% 98 29.97 0.0
16 19:15 S 6 10.00 Fair CLR 88.9 74.1 62% 98 29.97 0.0
16 18:55 S 10 10.00 Fair CLR 89.6 72.9 93.7 89.6 58% 98 29.97 0.0
16 18:35 S 7 10.00 Fair CLR 90.1 72.9 57% 98 29.96 0.0
16 18:15 S 9 10.00 Fair CLR 91 73 56% 100 29.97 0.0
16 17:55 S 12 10.00 Fair CLR 91.6 72.7 54% 100 29.97 0.0
16 17:35 S 13 10.00 Fair CLR 91.9 71.6 52% 99 29.97 0.0
16 17:15 S 10 10.00 Fair CLR 92.3 71.2 50% 99 29.97 0.0
16 16:55 S 9 10.00 Fair CLR 92.7 73 53% 102 29.98 0.0
16 16:35 S 9 10.00 Fair CLR 93 72.3 51% 101 29.98 0.0
16 16:15 S 8 7.00 Partly Cloudy SCT055 93.2 71.8 50% 101 29.98 0.0
16 15:55 S 10 10.00 Partly Cloudy SCT049 93.4 71.8 50% 101 29.98 0.0
16 15:35 S 8 10.00 Fair CLR 93.2 72.7 51% 102 29.99 0.0
16 15:15 SW 7 10.00 Partly Cloudy SCT039 SCT050 SCT060 93.4 73.6 53% 103 29.99 0.0
16 14:55 S 3 10.00 Mostly Cloudy SCT039 BKN060 BKN070 91.8 73.8 56% 101 30 0.0
16 14:35 S 7 10.00 Fair CLR 92.8 73.9 54% 103 30 0.0
16 14:15 S 7 10.00 Partly Cloudy SCT039 SCT049 SCT070 93.2 73.4 53% 103 30 0.0
16 13:55 S 7 10.00 Partly Cloudy SCT041 SCT055 SCT070 91.9 74.1 56% 102 30.01 0.0
16 13:35 S 3 10.00 Mostly Cloudy SCT039 SCT047 BKN060 92.5 74.1 55% 103 30.02 0.0
16 13:15 SW 3 10.00 Mostly Cloudy BKN039 BKN047 91.8 73.8 56% 101 30.02 0.0
16 12:55 Calm 10.00 Partly Cloudy SCT041 92.3 73 92.8 77.4 53% 101 30.03 0.0
16 12:35 W 5 10.00 Partly Cloudy SCT041 92.1 72.5 53% 100 30.03 0.0
16 12:15 Calm 10.00 Partly Cloudy SCT039 92.5 72.9 53% 101 30.03 0.0
16 11:55 SW 5 10.00 Partly Cloudy SCT037 91 73.2 56% 100 30.03 0.0
16 11:35 S 3 10.00 Partly Cloudy SCT031 90.7 72.7 56% 99 30.03 0.0
16 11:15 W 6 10.00 Partly Cloudy SCT031 SCT035 90.5 73.9 58% 100 30.04 0.0
16 10:55 W 5 10.00 Partly Cloudy SCT031 90.3 74.5 60% 100 30.04 0.0
16 10:35 SW 6 10.00 Fair CLR 89.6 74.3 61% 99 30.04 0.0
16 10:15 SW 6 10.00 Fair CLR 89.1 75.4 64% 100 30.04 0.0
16 09:55 SW 7 10.00 Partly Cloudy SCT025 88.5 75.4 65% 99 30.03 0.0
16 09:35 W 5 10.00 Fair CLR 87.8 75.6 67% 98 30.03 0.0
16 09:15 Calm 10.00 Fair CLR 86.4 77.7 76% 99 30.04 0.0
16 08:55 Calm 10.00 Fair CLR 85.1 78.1 80% 97 30.04 0.0
16 08:35 Calm 10.00 Fair CLR 82.2 78.8 89% 92 30.04 0.0
16 08:15 Calm 7.00 Fair CLR 80.6 78.1 92% 88 30.04 0.0
16 07:55 Calm 7.00 Partly Cloudy SCT026 SCT034 SCT041 80.2 78.3 94% 87 30.03 0.0
16 07:35 Calm 7.00 Mostly Cloudy SCT026 BKN039 BKN050 79.2 77.2 94% 84 30.03 0.0
16 07:15 Calm 7.00 Mostly Cloudy SCT026 BKN036 BKN049 78.6 76.8 94% 82 30.03 0.0
16 06:55 Calm 5.00 Thunderstorm Fog/Mist SCT024 SCT028 SCT040 77.2 75.4 78.8 76.6 94% 78 30.03 0.0
16 06:35 Calm 5.00 Fog/Mist CLR 76.6 74.7 94% 77 30.02 0.0
16 06:15 Calm 5.00 Fog/Mist CLR 77 75.2 94% 78 30.02 0.0
16 05:55 Calm 7.00 Fair CLR 76.8 74.7 93% 78 30.02 0.0
16 05:35 Calm 7.00 Fair CLR 77 75 94% 78 30.01 0.0
16 05:15 Calm 7.00 Fair CLR 77 74.8 93% 78 30.01 0.0
16 04:55 Calm 10.00 Fair CLR 77.4 75 93% 79 30.01 0.0
16 04:35 Calm 10.00 Fair CLR 78.1 75.6 92% 81 30 0.0
16 04:15 Calm 10.00 Fair CLR 78.4 76.3 93% 82 30.01 0.0
16 03:55 Calm 10.00 Fair CLR 77.9 75.7 93% 80 30.01 0.0
16 03:35 Calm 7.00 Partly Cloudy SCT026 77.4 75.2 93% 79 30.01 0.0
16 03:15 Calm 7.00 Thunderstorm in Vicinity SCT026 77.4 75.2 93% 79 30.01 0.0
16 02:55 Calm 10.00 Fair CLR 77.4 74.8 92% 79 30.01 0.0
16 02:35 Calm 10.00 Fair CLR 77.5 75 92% 79 30.01 0.0
16 02:15 Calm 10.00 Fair CLR 77.2 74.7 92% 79 30 0.0
16 01:55 Calm 10.00 Fair CLR 77.2 74.5 91% 79 30 0.0
16 01:35 Calm 10.00 Fair CLR 77.4 74.5 91% 79 30 0.0
16 01:15 Calm 10.00 Fair CLR 77.4 74.7 91% 79 30 0.0
16 00:55 Calm 10.00 Fair CLR 77.9 74.5 88.7 77.9 89% 80 30 0.0
16 00:35 Calm 10.00 Fair CLR 78.8 74.8 88% 82 29.99 0.0
16 00:15 Calm 10.00 Fair CLR 78.3 75.4 91% 81 30 0.0
15 23:55 Calm 10.00 Fair CLR 79.2 75.6 89% 83 30 0.0
15 23:35 Calm 10.00 Fair CLR 79.2 75.6 89% 83 29.99 0.0
15 23:15 Calm 10.00 Fair CLR 79.5 75.2 87% 84 29.99 0.0
15 22:55 Calm 10.00 Fair CLR 81.5 75.2 81% 88 30 0.0
15 22:35 Calm 10.00 Fair CLR 80.4 74.8 83% 86 30 0.0
15 22:15 Calm 10.00 Fair CLR 80.8 74.8 82% 86 29.99 0.0
15 21:55 Calm 10.00 Fair CLR 80.8 74.5 81% 86 29.99 0.0
15 21:35 Calm 10.00 Fair CLR 82.6 74.1 76% 89 29.99 0.0
15 21:15 SW 5 10.00 Fair CLR 82.8 73.4 73% 89 29.99 0.0
15 20:55 SW 5 10.00 Fair CLR 82.8 73 73% 89 29.99 0.0
15 20:35 SW 5 10.00 Fair CLR 83.1 73.4 73% 89 29.99 0.0
15 19:55 SW 5 10.00 Fair CLR 86 73.2 66% 93 30 0.0
15 19:35 S 8 10.00 Fair CLR 87.3 73.2 63% 95 30 0.0
15 19:15 SW 9 10.00 Fair CLR 87.8 73.8 63% 96 30 0.0
15 18:55 S 8 10.00 Partly Cloudy SCT120 88.7 74.8 92.3 87.1 64% 99 30 0.0
15 18:35 S 9 10.00 Partly Cloudy SCT090 SCT120 87.8 75.4 67% 98 30 0.0
15 18:15 S 6 10.00 Fair CLR 87.8 76.6 70% 99 30 0.0
15 17:55 S 6 10.00 Fair CLR 88.9 75.9 66% 100 30 0.0
15 17:35 SW 7 10.00 Fair CLR 89.6 74.7 62% 100 30 0.0
15 17:15 S 7 10.00 Thunderstorm in Vicinity CLR 89.1 75.4 64% 100 30.01 0.0
15 16:55 S 9 10.00 Fair CLR 90.5 76.1 63% 103 30.01 0.0
15 16:35 S 7 10.00 Fair CLR 87.6 76.3 69% 99 30.02 0.0
15 16:15 SW 8 10.00 Fair CLR 87.4 76.8 71% 99 30.03 0.0
15 15:55 S 5 10.00 Fair CLR 88 76.3 68% 99 30.03 0.0
15 15:35 S 6 10.00 Thunderstorm CLR 88.7 75.2 64% 99 30.04 0.0
15 15:15 S 8 10.00 Thunderstorm in Vicinity CLR 89.1 74.5 62% 99 30.05 0.0
15 14:55 S 9 10.00 Partly Cloudy SCT031 SCT046 90.9 75.6 61% 102 30.05 0.0
15 14:35 SW 7 10.00 Mostly Cloudy SCT031 SCT046 BKN055 91.2 75.4 60% 103 30.05 0.0
15 14:15 Calm 10.00 Fair CLR 91 73.6 57% 100 30.05 0.0
15 13:55 NW 5 10.00 Fair CLR 90.5 73.8 58% 100 30.06 0.0
15 13:35 Calm 10.00 Fair CLR 90.1 73.2 58% 99 30.07 0.0
15 13:15 W 3 10.00 Fair CLR 90.5 71.8 54% 98 30.07 0.0
15 12:55 SW 6 10.00 Fair CLR 90.5 73.6 91 76.8 58% 100 30.08 0.0
15 12:35 W 3 10.00 Fair CLR 90.5 71.8 54% 98 30.08 0.0
15 12:15 Calm 10.00 Fair CLR 90.5 72.3 55% 98 30.09 0.0
15 11:55 W 3 10.00 Fair CLR 90.3 74.7 60% 101 30.09 0.0
15 11:35 SW 5 10.00 Fair CLR 89.8 75.4 63% 101 30.1 0.0
15 11:15 W 5 10.00 Fair CLR 87.8 75.2 66% 98 30.11 0.0
15 10:55 Calm 10.00 Fair CLR 87.8 76.3 69% 99 30.11 0.0
15 10:35 W 5 10.00 Fair CLR 87.8 76.1 68% 99 30.12 0.0
15 10:15 Calm 10.00 Fair CLR 86.7 78.3 76% 100 30.12 0.0
15 09:55 Calm 10.00 Fair CLR 85.1 78.8 81% 98 30.12 0.0
15 09:35 Calm 10.00 Fair CLR 84.2 78.4 83% 96 30.12 0.0
15 09:15 Calm 10.00 Fair CLR 83.3 78.1 84% 94 30.11 0.0
15 08:55 Calm 10.00 Fair CLR 82.6 78.4 87% 92 30.11 0.0
15 08:35 Calm 10.00 Fair CLR 81.7 78.6 90% 91 30.11 0.0
15 08:15 Calm 10.00 Fair CLR 80.6 78.8 94% 88 30.11 0.0
15 07:55 Calm 10.00 Fair CLR 79.9 78.3 95% 86 30.11 0.0
15 07:35 Calm 7.00 Fair CLR 79 77.4 95% 83 30.11 0.0
15 07:15 Calm 4.00 Fog/Mist CLR 77.9 76.1 94% 80 30.1 0.0
15 06:55 Calm 4.00 Fog/Mist CLR 76.8 75.2 78.3 76.5 95% 77 30.1 0.0
15 06:35 Calm 4.00 Fog/Mist CLR 77 75.4 95% 78 30.09 0.0
15 06:15 Calm 7.00 Fair CLR 76.8 75.2 95% 77 30.09 0.0
15 05:55 Calm 7.00 Fair CLR 76.6 75.2 95% 77 30.08 0.0
15 05:35 Calm 4.00 Fog/Mist CLR 77.2 75.6 95% 78 30.08 0.0
15 05:15 Calm 4.00 Fog/Mist CLR 77.2 75.6 95% 78 30.08 0.0
15 04:55 Calm 3.00 Fog/Mist CLR 76.6 75.2 95% 77 30.07 0.0
15 04:35 Calm 3.00 Fog/Mist CLR 77.2 75.6 95% 78 30.07 0.0
15 04:15 Calm 3.00 Fog/Mist CLR 77.2 75.6 95% 78 30.07 0.0
15 03:55 Calm 4.00 Fog/Mist CLR 77 75.4 95% 78 30.08 0.0
15 03:35 Calm 3.00 Fog/Mist CLR 77.4 75.6 94% 79 30.08 0.0
15 03:15 Calm 1.00 Fog/Mist SCT003 BKN034 77.5 75.7 94% 79 30.08 0.0
15 02:55 Calm 3.00 Fog/Mist BKN032 77.4 75.6 94% 79 30.08 0.0
15 02:35 Calm 4.00 Fog/Mist SCT032 77.4 75.6 94% 79 30.08 0.0
15 02:15 Calm 3.00 Fog/Mist CLR 77.9 76.1 94% 80 30.09 0.0
15 01:55 Calm 4.00 Fog/Mist CLR 78.1 76.3 94% 81 30.09 0.0
15 01:35 Calm 5.00 Fog/Mist CLR 78.1 76.3 94% 81 30.1 0.0
15 01:15 Calm 4.00 Fog/Mist CLR 77.4 75.6 94% 79 30.1 0.0
15 00:55 Calm 7.00 Fair CLR 77.9 75.9 82 77.5 94% 80 30.11 0.0
15 00:35 Calm 5.00 Fog/Mist CLR 77.5 75.6 94% 79 30.1 0.0
15 00:15 Calm 5.00 Fog/Mist CLR 77.7 75.6 93% 80 30.1 0.0
14 23:55 Calm 5.00 Fog/Mist CLR 77.9 75.7 93% 80 30.09 0.0
14 23:35 Calm 7.00 Fair CLR 78.1 76.1 94% 81 30.09 0.0
14 23:15 Calm 7.00 Fair CLR 78.3 76.3 94% 81 30.09 0.0
Date Time (cdt) Wind (mph) Vis. (mi.) Weather Sky Cond. Air Dwpt Max. Min. Relative Humidity Wind Chill (°F) Heat Index (°F) altimeter (in) sea level (mb) 1 hr 3 hr 6 hr
6 hour
Temperature (ºF) Pressure Precipitation (in)